Погода в Табаге

Россия / Республика Саха (Якутия)     61°40′00″N   130°57′01″E
темп.,
°C
ветер,
м/с
пор.,
м/с
влажн.,
%
обл.,
%
осадки,
мм/ч
давл.,
гПа
погр.,
м
27 февраля, сб
сб2700:00−32вюв229834 0.0 103319
03:00−32в229818 0.0 103219
06:00−32в249853 0.0 103179
09:00−30вюв259673 0.0 1029145
12:00−24в249327 0.0 1028320
15:00−22в479260 0.0 1024391
18:00−25всв2695100 0.0 1023168
21:00−27всв2697100 0.0 1020165
28 февраля, вс
вс2800:00−28св2296100 0.0 101872
03:00−29ссв2295100 0.0 101567
06:00−29с2394100 0.0 101690
09:00−29зсз2395100 0.0 1017128
12:00−26зсз3593100 0.0 1019372
15:00−24зсз3594100 0.1 1020625
18:00−24з4797100 0.4 1023637
21:00−26зсз3796100 0.6 1024574
1 марта, пн
пн100:00−27з3797100 0.1 1025419
03:00−27з3797100 0.2 1025378
06:00−28з2797100 0.1 1026333
09:00−28з3694100 0.1 1026570
12:00−26з3588100 0.1 1026947
15:00−25з3587100 0.1 10261045
18:00−28з2297100 0.1 102741
21:00−30з229999 0.1 102721
2 марта, вт
вт200:00−32з22100100 0.0 102719
03:00−34з12100100 0.1 102719
06:00−35зюз1210097 0.0 102719
09:00−33зюз139894 0.0 102796
12:00−28з239196 0.0 1026477
15:00−27з238998 0.0 1026633
18:00−29зсз1196100 0.0 102619
21:00−30з0198100 0.0 102619
3 марта, ср
ср300:00−30зюз0198100 0.1 102619
03:00−30зсз1199100 0.1 102519
06:00−30зсз1198100 0.1 102419
09:00−30зсз1197100 0.1 1024119
12:00−27сз1288100 0.0 1022550
15:00−26сз2289100 0.1 1020687
18:00−29зсз2297100 0.1 101941
21:00−31зсз1299100 0.1 101919